Location: ??????
(38.1303°N, 24.0039°E)
Time: 17:58:13
(UTC+00:00)

Cosmos 2026 Rocket - Pass Details

Date: 20 June 2021
Orbit: 939 x 1001 km, 82.9° (Epoch: 27 July)

Event Time Altitude Azimuth Distance (km) Brightness Sun altitude
Exits shadow 00:31:24 41° 205° (SSW) 1,378 4.3 -21.7°
Maximum altitude 00:33:39 72° 278° (W) 1,032 4.0 -21.5°
Drops below altitude 10° 00:40:00 10° 3° (N) 2,765 7.2 -20.8°
Sets 00:42:34 0° 5° (N) 3,723 8.1 -20.5°
